This is the latest recevied weather packets stored in our database for station/object KC8PTQ. If no packets are shown the sender has not sent any weather packets the latest 1 day(s).
| Time | Temp. | Humidity | Pressure | Rain* | Wind** | Luminosity | Snow |
|---|---|---|---|---|---|---|---|
| 1778072267 | 7.22° C | 99% | 1011.2 hPa | 0 mm | - | 96 W/m² | - |
| 1778071663 | 7.22° C | 99% | 1011.3 hPa | 0 mm | - | 50 W/m² | - |
| 1778071360 | 7.22° C | 99% | 1010.9 hPa | 0 mm | - | 50 W/m² | - |
| 1778070756 | 7.22° C | 99% | 1010.7 hPa | 0 mm | - | 94 W/m² | - |
| 1778068335 | 7.22° C | 99% | 1010.4 hPa | 0 mm | - | 34 W/m² | - |
| 1778067730 | 6.67° C | 99% | 1010.5 hPa | 0 mm | - | 21 W/m² | - |
| 1778067125 | 6.67° C | 99% | 1010.5 hPa | 0 mm | - | 11 W/m² | - |
| 1778066216 | 6.67° C | 99% | 1010.2 hPa | 0 mm | - | 8 W/m² | - |
| 1778065914 | 6.67° C | 99% | 1009.9 hPa | 0 mm | - | 8 W/m² | - |
| 1778065005 | 6.67° C | 99% | 1010.1 hPa | 0 mm | - | 4 W/m² | - |
| 1778064702 | 6.67° C | 99% | 1009.9 hPa | 0 mm | - | 3 W/m² | - |
| 1778064400 | 6.67° C | 99% | 1009.9 hPa | 0 mm | - | 1 W/m² | - |
| 1778062583 | 6.67° C | 99% | 1008.9 hPa | 0 mm | - | 0 W/m² | - |
| 1778062280 | 6.67° C | 99% | 1008.8 hPa | 0 mm | - | 0 W/m² | - |
| 1778061676 | 6.67° C | 99% | 1008.6 hPa | 0 mm | - | 0 W/m² | - |
| 1778061375 | 6.67° C | 99% | 1008.4 hPa | 0 mm | - | 0 W/m² | - |
| 1778060466 | 6.67° C | 99% | 1008.4 hPa | 1.27 mm | - | 0 W/m² | - |
| 1778058954 | 7.22° C | 99% | 1009.4 hPa | 1.78 mm | - | 0 W/m² | - |
| 1778058349 | 7.22° C | 99% | 1009.4 hPa | 1.27 mm | - | 0 W/m² | - |
| 1778058045 | 7.22° C | 99% | 1009.4 hPa | 3.05 mm | - | 0 W/m² | - |
| 1778057742 | 7.22° C | 99% | 1009.4 hPa | 1.78 mm | - | 0 W/m² | - |
| 1778057438 | 7.22° C | 99% | 1009.2 hPa | 0 mm | - | 0 W/m² | - |
| 1778055923 | 7.22° C | 99% | 1009 hPa | 1.27 mm | - | 0 W/m² | - |
| 1778055317 | 7.22° C | 99% | 1009 hPa | 0 mm | - | 0 W/m² | - |
| 1778055014 | 7.22° C | 99% | 1009.2 hPa | 0 mm | - | 0 W/m² | - |
* Rain latest hour (hover to see other rain measurements)
** Current wind speed in m/s (hover to see current wind gust speed)